Location: Midlothian
(32.4824°N, 96.9944°W)
Time: 06:03:42
(UTC+00:00)

Daily predictions for brighter satellites

Satellite Brightness Start Highest point End
(mag) Time Altitude Azimuth Time Altitude Azimuth Time Altitude Azimuth
Cosmos 1606 Rocket 3.6 12:04:36 10° N 12:09:02 85° E 12:13:26 10° S
USA 59 Rocket 1.9 12:10:53 10° N 12:14:28 30° ENE 12:19:09 10° ESE
Cosmos 2026 Rocket 3.9 12:09:42 10° S 12:15:44 89° ESE 12:21:49 10° N
Cosmos 841 Rocket 3.8 12:15:00 10° SW 12:19:55 43° WNW 12:24:54 10° N
deb Centaur AC-2 4.5 12:16:56 15° W 12:20:26 57° S 12:25:11 10° ESE
Meteor 2-3 Rocket 3.7 12:15:12 10° SSW 12:20:55 67° W 12:26:38 10° N
Centaur D AC-28 4.0 12:16:11 12° W 12:23:22 24° SW 12:27:02 10° SSE
Cosmos 1484 Rocket 2.5 12:21:59 10° N 12:25:19 54° WNW 12:28:36 10° SSW
COSMOS 2455 3.2 12:23:27 10° NNW 12:29:29 70° ENE 12:35:27 10° SSE
Cosmos 1697 Rocket 4.2 12:31:20 12° WNW 12:34:03 16° W 12:37:19 10° SW
Cosmos 1933 3.8 12:31:44 10° NNW 12:35:12 34° W 12:38:38 10° SSW
Cosmos 1092 Rocket 4.0 12:29:14 10° SSW 12:35:31 72° W 12:41:47 10° N
Cosmos 1726 Rocket 3.5 12:33:02 10° NNW 12:37:19 60° W 12:41:26 10° S
Cosmos 1898 Rocket 3.5 12:36:45 10° NNW 12:41:57 68° WSW 12:47:10 10° S
COSMOS 2406 3.8 12:38:23 10° SW 12:43:30 34° WNW 12:48:39 10° N
Cosmos 2322 Rocket 4.3 12:39:08 10° N 12:43:36 23° ENE 12:48:01 10° ESE
Cosmos 1626 Rocket 4.3 12:39:43 10° S 12:44:03 59° E 12:48:24 10° NNE
Delta 2 Rocket 2.9 12:41:10 10° WNW 12:44:06 48° N 12:47:00 10° E
Cosmos 1892 Rocket 4.2 12:41:09 10° SW 12:45:04 34° W 12:49:03 10° NNW
CZ-2D R/B 3.5 12:41:58 10° NNE 12:45:05 57° E 12:48:12 10° S
Cosmos 2237 4.3 12:41:27 10° NNW 12:47:11 87° ENE 12:52:52 10° SSE
Cosmos 405 Rocket 3.2 12:46:53 10° S 12:50:00 53° E 12:53:11 10° NNE
SMAP 3.1 12:45:48 10° N 12:50:29 84° WNW 12:55:07 10° SSW
NOSS 3-2 (C) 3.3 23:40:31 10° S 23:45:00 45° ESE 23:50:02 10° NE
NOSS 3-2 (A) 3.7 23:43:31 10° SW 23:48:06 50° NW 23:53:23 10° NNE
Cosmos 1777 Rocket 4.5 23:43:27 10° S 23:48:20 41° ESE 23:53:15 10° NNE
SMAP 3.1 23:44:11 10° SSE 23:48:43 56° ENE 23:53:17 10° N
COSMO-SKYMED 1 4.1 23:46:23 10° ENE 23:48:47 15° E 23:51:10 10° SE
Gbstr 26 Del rocket 3.6 23:46:29 10° SSW 23:50:29 36° SE 23:54:03 10° ENE
IGS 5A 3.7 23:47:34 10° S 23:51:30 72° W 23:55:27 10° NNW
Cosmos 1697 Rocket 3.7 23:47:54 10° SSE 23:52:26 26° ESE 23:57:00 10° NE
Landsat 7 3.9 23:51:00 10° SSE 23:55:27 49° ENE 23:59:56 10° N
